Kingman, AZ

11:45 PM MST on November 19, 2017 (GMT -0700)
Kingman

Weather History for KIGM - March, 2012

Change the Weather History Date:

Saturday, March 3, 2012

  Actual Average Record
Temperature  
Mean Temperature 43 °F 49 °F  
Max Temperature 61 °F 63 °F 85 °F (1910)
Min Temperature 25 °F 36 °F 18 °F (1966)
Degree Days  
Heating Degree Days 22 16  
Month to date heating degree days 66 48  
Since 1 July heating degree days 2559 2461  
Cooling Degree Days 0 0  
Month to date cooling degree days 0 0  
Year to date cooling degree days 0 0  
Moisture  
Dew Point 11 °F    
Average Humidity 31    
Maximum Humidity 46    
Minimum Humidity 15    
Precipitation  
Precipitation 0.00 in 0.04 in 1.45 in (1938)
Month to date precipitation 0.00 0.12  
Year to date precipitation 0.77 2.28  
Sea Level Pressure  
Sea Level Pressure 30.28 in    
Wind  
Wind Speed 8 mph (NE)    
Max Wind Speed 17 mph    
Max Gust Speed 23 mph    
Visibility 10 miles    
Events      
T = Trace of Precipitation, MM = Missing Value Source: NWS Daily Summary

Daily Weather History Graph

Daily Weather History Graph

Search for Another Location

Airport or City:

Trip Planner

Search our weather history database for the weather conditions in past years. The results will help you decide how hot, cold, wet, or windy it might be!

Date:

Astronomy

Mar. 03, 2012 Rise Set
Actual Time 7:02 AM MST 6:33 PM MST
Civil Twilight 6:36 AM MST 6:59 PM MST
Nautical Twilight 6:07 AM MST 7:28 PM MST
Astronomical Twilight 5:37 AM MST 7:57 PM MST
Moon 1:56 PM MST (3/3) 3:33 AM MST (3/3)
Length of Visible Light 12h 22m
Length of Day
11h 31m
Waxing Gibbous, 76% of the Moon is Illuminated
Mar 3
Waxing Gibbous
Mar 8
Full
Mar 14
Last Quarter
Mar 22
New
Mar 30
First Quarter

Hourly Weather History & Observations

Time (MST) Temp. Windchill Dew Point Humidity Pressure Visibility Wind Dir Wind Speed Gust Speed Precip Events Conditions
12:48 AM 36.0 °F 33.3 °F 5.0 °F 27% 30.25 in 10.0 mi NE 3.5 mph - N/A   Clear
1:48 AM 27.0 °F 21.6 °F 9.0 °F 47% 30.27 in 10.0 mi East 4.6 mph - N/A   Clear
2:48 AM 28.0 °F 22.8 °F 8.1 °F 43% 30.27 in 10.0 mi ENE 4.6 mph - N/A   Clear
3:48 AM 27.0 °F 19.5 °F 9.0 °F 47% 30.27 in 10.0 mi ESE 6.9 mph - N/A   Clear
4:48 AM 28.0 °F 24.2 °F 9.0 °F 45% 30.28 in 10.0 mi SSE 3.5 mph - N/A   Clear
5:48 AM 28.9 °F - 10.0 °F 45% 30.30 in 10.0 mi Calm Calm - N/A   Clear
6:48 AM 30.0 °F 22.4 °F 8.1 °F 40% 30.32 in 10.0 mi ENE 8.1 mph - N/A   Clear
7:48 AM 34.0 °F 28.0 °F 9.0 °F 35% 30.33 in 10.0 mi ENE 6.9 mph - N/A   Clear
8:48 AM 39.9 °F 36.7 °F 10.0 °F 29% 30.35 in 10.0 mi NNE 4.6 mph - N/A   Clear
9:48 AM 45.0 °F 41.2 °F 8.1 °F 22% 30.37 in 10.0 mi NE 6.9 mph - N/A   Clear
10:48 AM 46.9 °F - 7.0 °F 20% 30.36 in 10.0 mi Variable 6.9 mph - N/A   Clear
11:48 AM 51.1 °F - 8.1 °F 18% 30.34 in 10.0 mi North 6.9 mph - N/A   Clear
12:48 PM 54.0 °F - 9.0 °F 17% 30.30 in 10.0 mi North 8.1 mph 17.3 mph N/A   Clear
1:48 PM 57.0 °F - 10.0 °F 15% 30.28 in 10.0 mi North 9.2 mph - N/A   Clear
2:48 PM 59.0 °F - 12.0 °F 16% 30.24 in 10.0 mi North 15.0 mph 20.7 mph N/A   Clear
3:48 PM 61.0 °F - 12.0 °F 15% 30.23 in 10.0 mi NNE 10.4 mph - N/A   Clear
4:48 PM 60.1 °F - 12.9 °F 16% 30.22 in 10.0 mi North 12.7 mph - N/A   Clear
5:48 PM 55.9 °F - 12.9 °F 18% 30.24 in 10.0 mi North 11.5 mph - N/A   Clear
6:48 PM 48.9 °F - 14.0 °F 25% 30.26 in 10.0 mi ENE 12.7 mph - N/A   Clear
7:48 PM 43.0 °F 37.7 °F 14.0 °F 31% 30.28 in 10.0 mi East 9.2 mph - N/A   Clear
8:48 PM 43.0 °F 37.7 °F 14.0 °F 31% 30.27 in 10.0 mi ESE 9.2 mph - N/A   Clear
9:48 PM 43.0 °F 37.7 °F 14.0 °F 31% 30.27 in 10.0 mi East 9.2 mph - N/A   Clear
10:48 PM 44.1 °F 38.6 °F 15.1 °F 31% 30.26 in 10.0 mi ENE 10.4 mph - N/A   Clear
11:48 PM 39.9 °F 34.5 °F 16.0 °F 38% 30.26 in 10.0 mi ESE 8.1 mph - N/A   Clear